Location: Bílinka
(49.3579°N, 14.3767°E)
Time: 22:11:11
(UTC+00:00)

ATLAS 5 CENTAUR R/B - Pass Details

Date: 28 January 2023
Orbit: 460 x 1178 km, 63.3° (Epoch: 24 March)

Event Time Altitude Azimuth Distance (km) Brightness Sun altitude
Rises 18:59:28 0° 295° (WNW) 2,675 5.9 -30.5°
Reaches altitude 10° 19:02:26 10° 321° (NW) 1,893 4.6 -31.0°
Enters shadow 19:03:47 14° 339° (NNW) 1,723 4.1 -31.2°
